Location: Bourg-d�Oueil
(42.8588°N, 0.4991°E)
Time: 17:17:09
(UTC+00:00)

Cosmos 2058 Rocket - Pass Details

Date: 16 June 2021
Orbit: 609 x 640 km, 82.5° (Epoch: 03 August)

Event Time Altitude Azimuth Distance (km) Brightness Sun altitude
Rises 23:18:37 0° 352° (N) 2,931 8.0 -23.1°
Reaches altitude 10° 23:20:53 10° 354° (N) 2,014 6.8 -23.2°
Maximum altitude 23:25:21 79° 81° (E) 640 3.0 -23.3°
Enters shadow 23:25:34 76° 121° (ESE) 647 2.9 -23.3°
